User: anonymous   Login
Location: Poughquag
(41.6090°N, 73.6820°W)
Time: 09:47:02
(UTC-04:00)
Language:

ISS - Orbit

View from above orbital plane
View from above orbital plane
View from above satellite
View from above satellite

Ground track
Ground track

The orbit data is extracted from the following two-line orbital elements,

1 25544U 98067A   20223.20003363  .00016717  00000-0  10270-3 0  9070
2 25544  51.6409  81.1543 0001231  13.6653 346.4530 15.49159525 40386
Epoch (UTC): 10 August 2020 04:48:02
Eccentricity: 0.0001231
inclination: 51.6409°
perigee height: 418 km
apogee height: 420 km
right ascension of ascending node: 81.1543°
argument of perigee: 13.6653°
revolutions per day: 15.49159525
mean anomaly at epoch: 346.4530°
orbit number at epoch: 4038

The dashed part of the orbit path shows where the satellite is in the earth's shadow,  

DLR